Location: Geroldsau
(48.7259°N, 8.2466°E)
Time: 09:31:08
(UTC+00:00)

Cosmos 2292 Rocket - Pass Details

Date: 20 June 2021
Orbit: 381 x 1445 km, 83.0° (Epoch: 01 August)

Event Time Altitude Azimuth Distance (km) Brightness Sun altitude
Exits shadow 02:10:01 13° 201° (SSW) 1,247 4.5 -9.3°
Maximum altitude 02:12:33 58° 281° (W) 452 2.7 -9.1°
Drops below altitude 10° 02:15:32 10° 2° (N) 1,444 6.4 -8.8°
Sets 02:17:37 0° 6° (N) 2,364 7.6 -8.6°
